Location: Mountain Grove
(34.0887°N, 86.6172°W)
Time: 21:48:59
(UTC+00:00)

ATLAS 2AS CENTAUR R/B - Pass Details

Date: 14 July 2020
Orbit: 930 x 1282 km, 63.7° (Epoch: 19 July)

Event Time Altitude Azimuth Distance (km) Brightness Sun altitude
Rises 01:39:21 0° 339° (NNW) 4,155 6.8 -8.0°
Reaches altitude 10° 01:43:10 10° 355° (N) 3,132 5.7 -8.7°
Maximum altitude 01:48:24 20° 40° (NE) 2,377 4.5 -9.6°
Drops below altitude 10° 01:53:21 10° 86° (E) 2,943 4.6 -10.4°
Enters shadow 01:54:27 - 92° (E) 3,204 4.7 -10.6°
